Weather History for LFRO - October, 2013

Change the Weather History Date:

Wednesday, October 30, 2013

  Actual Average (LFRT) Record (LFRT)
Temperature  
Mean Temperature 50 °F -  
Max Temperature 59 °F 56 °F 71 °F (2001)
Min Temperature 42 °F 46 °F 32 °F (1997)
Degree Days  
Heating Degree Days 14    
Moisture  
Dew Point 46 °F    
Average Humidity 83    
Maximum Humidity 100    
Minimum Humidity 63    
Precipitation  
Precipitation 0.00 in - - ()
Sea Level Pressure  
Sea Level Pressure 30.19 in    
Wind  
Wind Speed 7 mph ()    
Max Wind Speed 15 mph    
Max Gust Speed 22 mph    
Visibility 6.2 miles    
Events      
Averages and records for this station are not official NWS values.
T = Trace of Precipitation, MM = Missing Value Source: Averaged Metar Reports

Daily Weather History Graph

Daily Weather History Graph

Search for Another Location

Airport or City:

Trip Planner

Search our weather history database for the weather conditions in past years. The results will help you decide how hot, cold, wet, or windy it might be!

Date:

Astronomy

Oct. 30, 2013 Rise Set
Actual Time 7:57 AM CET 5:56 PM CET
Civil Twilight 7:24 AM CET 6:29 PM CET
Nautical Twilight 6:47 AM CET 7:06 PM CET
Astronomical Twilight 6:10 AM CET 7:43 PM CET
Moon 3:11 AM CET (10/30) 3:52 PM CET (10/30)
Length of Visible Light 11h 05m
Length of Day
9h 59m
Waning Crescent, 19% of the Moon is Illuminated
Oct 30
Waning Crescent
Nov 3
New
Nov 10
First Quarter
Nov 17
Full
Nov 25
Last Quarter

Hourly Weather History & Observations

Time (CET) Temp. Windchill Dew Point Humidity Pressure Visibility Wind Dir Wind Speed Gust Speed Precip Events Conditions
12:00 AM 46.4 °F 42.9 °F 42.8 °F 87% 30.18 in 6.2 mi SSW 6.9 mph - N/A   Unknown
12:30 AM 44.6 °F 42.2 °F 42.8 °F 93% 30.18 in 6.2 mi SSE 4.6 mph - N/A   Mostly Cloudy
1:00 AM 46.4 °F 42.9 °F 42.8 °F 87% 30.18 in 6.2 mi SSW 6.9 mph - N/A   Mostly Cloudy
1:30 AM 46.4 °F 42.4 °F 42.8 °F 87% 30.18 in 6.2 mi SSW 8.1 mph - N/A   Partly Cloudy
2:00 AM 44.6 °F 40.7 °F 42.8 °F 93% 30.18 in 6.2 mi SSW 6.9 mph - N/A   Unknown
2:30 AM 44.6 °F 40.7 °F 42.8 °F 93% 30.18 in 6.2 mi SSW 6.9 mph - N/A   Unknown
3:00 AM 44.6 °F 41.4 °F 42.8 °F 93% 30.18 in 6.2 mi South 5.8 mph - N/A   Unknown
3:30 AM 44.6 °F 40.7 °F 42.8 °F 93% 30.21 in 6.2 mi SSW 6.9 mph - N/A   Unknown
4:00 AM 42.8 °F 40.1 °F 42.8 °F 100% 30.21 in 6.2 mi South 4.6 mph - N/A   Unknown
4:30 AM 44.6 °F 41.4 °F 42.8 °F 93% 30.21 in 6.2 mi South 5.8 mph - N/A   Unknown
5:00 AM 44.6 °F 41.4 °F 42.8 °F 93% 30.21 in 6.2 mi South 5.8 mph - N/A   Unknown
5:30 AM 44.6 °F 41.4 °F 42.8 °F 93% 30.21 in 6.2 mi South 5.8 mph - N/A   Unknown
6:00 AM 44.6 °F 42.2 °F 42.8 °F 93% 30.21 in 6.2 mi South 4.6 mph - N/A   Unknown
6:30 AM 44.6 °F 42.2 °F 42.8 °F 93% 30.21 in 6.2 mi South 4.6 mph - N/A   Overcast
7:00 AM 44.6 °F 42.2 °F 44.6 °F 100% 30.21 in 6.2 mi SSE 4.6 mph - N/A   Overcast
7:30 AM 44.6 °F 41.4 °F 42.8 °F 93% 30.21 in 6.2 mi SSE 5.8 mph - N/A   Unknown
8:00 AM 44.6 °F 41.4 °F 44.6 °F 100% 30.21 in 6.2 mi SSE 5.8 mph - N/A   Overcast
8:30 AM 44.6 °F 42.2 °F 44.6 °F 100% 30.21 in 6.2 mi SSE 4.6 mph - N/A   Mostly Cloudy
9:00 AM 46.4 °F 43.5 °F 44.6 °F 93% 30.24 in 6.2 mi SSE 5.8 mph - N/A   Unknown
9:30 AM 50.0 °F - 46.4 °F 87% 30.24 in 6.2 mi SSE 5.8 mph - N/A   Unknown
10:00 AM 51.8 °F - 48.2 °F 88% 30.24 in 6.2 mi SSE 5.8 mph - N/A   Unknown
10:30 AM 53.6 °F - 48.2 °F 82% 30.24 in 6.2 mi SE 4.6 mph - N/A   Unknown
11:00 AM 53.6 °F - 48.2 °F 82% 30.21 in 6.2 mi South 6.9 mph - N/A   Unknown
11:30 AM 55.4 °F - 48.2 °F 77% 30.21 in 6.2 mi South 11.5 mph - N/A   Unknown
12:00 PM 57.2 °F - 48.2 °F 72% 30.21 in 6.2 mi South 12.7 mph - N/A   Unknown
12:30 PM 57.2 °F - 46.4 °F 67% 30.21 in 6.2 mi South 12.7 mph - N/A   Mostly Cloudy
1:00 PM 57.2 °F - 48.2 °F 72% 30.21 in 6.2 mi South 11.5 mph - N/A   Overcast
1:30 PM 57.2 °F - 48.2 °F 72% 30.18 in 6.2 mi South 11.5 mph - N/A   Overcast
2:00 PM 59.0 °F - 48.2 °F 67% 30.18 in 6.2 mi South 11.5 mph - N/A   Overcast
2:30 PM 59.0 °F - 48.2 °F 67% 30.18 in 6.2 mi South 12.7 mph - N/A   Mostly Cloudy
3:00 PM 59.0 °F - 48.2 °F 67% 30.18 in 6.2 mi South 11.5 mph - N/A   Scattered Clouds
3:30 PM 59.0 °F - 48.2 °F 67% 30.15 in 6.2 mi South 11.5 mph - N/A   Partly Cloudy
4:00 PM 59.0 °F - 46.4 °F 63% 30.15 in 6.2 mi SSW 12.7 mph - N/A   Partly Cloudy
4:30 PM 59.0 °F - 46.4 °F 63% 30.15 in 6.2 mi SSW 12.7 mph - N/A   Partly Cloudy
5:00 PM 57.2 °F - 46.4 °F 67% 30.15 in 6.2 mi South 10.4 mph - N/A   Unknown
5:30 PM 57.2 °F - 46.4 °F 67% 30.15 in 6.2 mi South 9.2 mph - N/A   Unknown
6:00 PM 55.4 °F - 46.4 °F 72% 30.15 in 6.2 mi South 6.9 mph - N/A   Unknown
6:30 PM 53.6 °F - 48.2 °F 82% 30.15 in 6.2 mi South 9.2 mph - N/A   Unknown
7:00 PM 53.6 °F - 48.2 °F 82% 30.15 in 6.2 mi South 8.1 mph - N/A   Unknown
7:30 PM 53.6 °F - 48.2 °F 82% 30.18 in 6.2 mi South 8.1 mph - N/A   Unknown
8:00 PM 53.6 °F - 48.2 °F 82% 30.18 in 6.2 mi South 9.2 mph - N/A   Unknown
8:30 PM 53.6 °F - 48.2 °F 82% 30.15 in 6.2 mi South 9.2 mph - N/A   Unknown
9:00 PM 53.6 °F - 50.0 °F 88% 30.15 in 6.2 mi South 10.4 mph 21.9 mph N/A   Unknown
9:30 PM 55.4 °F - 50.0 °F 82% 30.15 in 6.2 mi South 10.4 mph - N/A   Unknown
10:00 PM 53.6 °F - 50.0 °F 88% 30.15 in 6.2 mi South 9.2 mph - N/A   Unknown
10:30 PM 53.6 °F - 50.0 °F 88% 30.15 in 6.2 mi South 10.4 mph - N/A   Mostly Cloudy
11:00 PM 55.4 °F - 50.0 °F 82% 30.15 in 6.2 mi South 15.0 mph - N/A   Mostly Cloudy
11:30 PM 55.4 °F - 50.0 °F 82% 30.15 in 6.2 mi South 12.7 mph - N/A   Partly Cloudy